Year,Month,Day,Hour,Minute,Value (Times are PST for temperature in C)
2014,04,30,00,00,9.60
2014,04,30,00,05,9.60
2014,04,30,00,06,9.60
2014,04,30,00,07,9.60
2014,04,30,00,08,9.60
2014,04,30,00,09,9.60
2014,04,30,00,10,9.60
2014,04,30,00,11,9.70
2014,04,30,00,12,9.70
2014,04,30,00,13,9.70
2014,04,30,00,14,9.80
2014,04,30,00,15,9.80
2014,04,30,00,16,9.80
2014,04,30,00,17,9.80
2014,04,30,00,18,9.80
2014,04,30,00,19,9.80
2014,04,30,00,20,9.80
2014,04,30,00,21,9.80
2014,04,30,00,22,9.90
2014,04,30,00,23,9.90
2014,04,30,00,24,9.90
2014,04,30,00,25,9.90
2014,04,30,00,26,10.00
2014,04,30,00,27,10.00
2014,04,30,00,28,10.00
2014,04,30,00,29,10.10
2014,04,30,00,30,10.10
2014,04,30,00,31,10.10
2014,04,30,00,32,10.10
2014,04,30,00,33,10.10
2014,04,30,00,34,10.10
2014,04,30,00,35,10.20
2014,04,30,00,36,10.20
2014,04,30,00,37,10.20
2014,04,30,00,38,10.20
2014,04,30,00,39,10.30
2014,04,30,00,40,10.30
2014,04,30,00,41,10.30
2014,04,30,00,42,10.30
2014,04,30,00,43,10.40
2014,04,30,00,44,10.40
2014,04,30,00,45,10.40
2014,04,30,00,46,10.40
2014,04,30,00,47,10.40
2014,04,30,00,48,10.40
2014,04,30,00,49,10.40
2014,04,30,00,50,10.50
2014,04,30,00,51,10.50
2014,04,30,00,52,10.50
2014,04,30,00,53,10.50
2014,04,30,00,54,10.50
2014,04,30,00,55,10.50
2014,04,30,00,56,10.50
2014,04,30,00,57,10.50
2014,04,30,00,58,10.50
2014,04,30,00,59,10.60
2014,04,30,01,00,10.60
2014,04,30,01,01,10.60
2014,04,30,01,02,10.60
2014,04,30,01,03,10.60
2014,04,30,01,04,10.50
2014,04,30,01,05,10.50
2014,04,30,01,06,10.60
2014,04,30,01,07,10.60
2014,04,30,01,08,10.60
2014,04,30,01,09,10.60
2014,04,30,01,10,10.60
2014,04,30,01,11,10.60
2014,04,30,01,12,10.60
2014,04,30,01,13,10.60
2014,04,30,01,14,10.60
2014,04,30,01,15,10.60
2014,04,30,01,16,10.60
2014,04,30,01,17,10.60
2014,04,30,01,18,10.60
2014,04,30,01,19,10.60
2014,04,30,01,20,10.60
2014,04,30,01,21,10.60
2014,04,30,01,22,10.70
2014,04,30,01,23,10.70
2014,04,30,01,24,10.70
2014,04,30,01,25,10.60
2014,04,30,01,26,10.60
2014,04,30,01,27,10.60
2014,04,30,01,28,10.60
2014,04,30,01,29,10.60
2014,04,30,01,30,10.60
2014,04,30,01,31,10.60
2014,04,30,01,32,10.60
2014,04,30,01,33,10.60
2014,04,30,01,34,10.60
2014,04,30,01,35,10.60
2014,04,30,01,36,10.60
2014,04,30,01,37,10.50
2014,04,30,01,38,10.50
2014,04,30,01,39,10.50
2014,04,30,01,40,10.50
2014,04,30,01,41,10.60
2014,04,30,01,42,10.60
2014,04,30,01,43,10.70
2014,04,30,01,44,10.70
2014,04,30,01,45,10.70
2014,04,30,01,46,10.70
2014,04,30,01,47,10.70
2014,04,30,01,48,10.70
2014,04,30,01,49,10.70
2014,04,30,01,50,10.70
2014,04,30,01,51,10.60
2014,04,30,01,52,10.60
2014,04,30,01,53,10.50
2014,04,30,01,54,10.50
2014,04,30,01,55,10.50
2014,04,30,01,56,10.50
2014,04,30,01,57,10.50
2014,04,30,01,58,10.40
2014,04,30,01,59,10.40
2014,04,30,02,00,10.40
2014,04,30,02,01,10.40
2014,04,30,02,02,10.40
2014,04,30,02,03,10.40
2014,04,30,02,04,10.40
2014,04,30,02,05,10.40
2014,04,30,02,06,10.40
2014,04,30,02,07,10.50
2014,04,30,02,08,10.50
2014,04,30,02,09,10.50
2014,04,30,02,10,10.50
2014,04,30,02,11,10.60
2014,04,30,02,12,10.60
2014,04,30,02,13,10.60
2014,04,30,02,14,10.60
2014,04,30,02,15,10.50
2014,04,30,02,16,10.60
2014,04,30,02,17,10.50
2014,04,30,02,18,10.50
2014,04,30,02,19,10.50
2014,04,30,02,20,10.50
2014,04,30,02,21,10.50
2014,04,30,02,22,10.50
2014,04,30,02,23,10.50
2014,04,30,02,24,10.40
2014,04,30,02,25,10.40
2014,04,30,02,26,10.30
2014,04,30,02,27,10.30
2014,04,30,02,28,10.30
2014,04,30,02,29,10.30
2014,04,30,02,30,10.30
2014,04,30,02,31,10.20
2014,04,30,02,32,10.20
2014,04,30,02,33,10.20
2014,04,30,02,34,10.20
2014,04,30,02,35,10.20
2014,04,30,02,36,10.20
2014,04,30,02,37,10.20
2014,04,30,02,38,10.20
2014,04,30,02,39,10.20
2014,04,30,02,40,10.20
2014,04,30,02,41,10.20
2014,04,30,02,42,10.20
2014,04,30,02,43,10.20
2014,04,30,02,44,10.20
2014,04,30,02,45,10.20
2014,04,30,02,46,10.20
2014,04,30,02,47,10.10
2014,04,30,02,48,10.10
2014,04,30,02,49,10.10
2014,04,30,02,50,10.10
2014,04,30,02,51,10.10
2014,04,30,02,52,10.00
2014,04,30,02,53,10.00
2014,04,30,02,54,10.00
2014,04,30,02,55,10.00
2014,04,30,02,56,10.00
2014,04,30,02,57,10.00
2014,04,30,02,58,10.10
2014,04,30,02,59,10.00
2014,04,30,03,00,10.00
2014,04,30,03,01,9.90
2014,04,30,03,02,9.90
2014,04,30,03,03,9.80
2014,04,30,03,04,9.80
2014,04,30,03,05,9.80
2014,04,30,03,06,9.70
2014,04,30,03,07,9.70
2014,04,30,03,08,9.70
2014,04,30,03,09,9.60
2014,04,30,03,10,9.60
2014,04,30,03,11,9.50
2014,04,30,03,12,9.50
2014,04,30,03,13,9.50
2014,04,30,03,14,9.50
2014,04,30,03,15,9.50
2014,04,30,03,16,9.50
2014,04,30,03,17,9.40
2014,04,30,03,18,9.40
2014,04,30,03,19,9.40
2014,04,30,03,20,9.40
2014,04,30,03,21,9.40
2014,04,30,03,22,9.30
2014,04,30,03,23,9.30
2014,04,30,03,24,9.30
2014,04,30,03,25,9.30
2014,04,30,03,26,9.30
2014,04,30,03,27,9.20
2014,04,30,03,28,9.20
2014,04,30,03,29,9.20
2014,04,30,03,30,9.20
2014,04,30,03,31,9.20
2014,04,30,03,32,9.10
2014,04,30,03,33,9.10
2014,04,30,03,34,9.10
2014,04,30,03,35,9.20
2014,04,30,03,36,9.20
2014,04,30,03,37,9.20
2014,04,30,03,38,9.20
2014,04,30,03,39,9.20
2014,04,30,03,40,9.20
2014,04,30,03,41,9.20
2014,04,30,03,42,9.20
2014,04,30,03,43,9.20
2014,04,30,03,44,9.20
2014,04,30,03,45,9.20
2014,04,30,03,46,9.20
2014,04,30,03,47,9.10
2014,04,30,03,48,9.10
2014,04,30,03,49,9.10
2014,04,30,03,50,9.10
2014,04,30,03,51,9.10
2014,04,30,03,52,9.00
2014,04,30,03,53,9.00
2014,04,30,03,54,8.90
2014,04,30,03,55,8.90
2014,04,30,03,56,8.90
2014,04,30,03,57,8.90
2014,04,30,03,58,8.90
2014,04,30,03,59,8.80
2014,04,30,04,00,8.80
2014,04,30,04,01,8.80
2014,04,30,04,02,8.80
2014,04,30,04,03,8.80
2014,04,30,04,04,8.70
2014,04,30,04,05,8.70
2014,04,30,04,06,8.70
2014,04,30,04,07,8.70
2014,04,30,04,08,8.80
2014,04,30,04,09,8.80
2014,04,30,04,10,8.80
2014,04,30,04,11,8.80
2014,04,30,04,12,8.80
2014,04,30,04,13,8.80
2014,04,30,04,14,8.80
2014,04,30,04,15,8.80
2014,04,30,04,16,8.80
2014,04,30,04,17,8.80
2014,04,30,04,18,8.80
2014,04,30,04,19,8.80
2014,04,30,04,20,8.80
2014,04,30,04,21,8.80
2014,04,30,04,22,8.80
2014,04,30,04,23,8.80
2014,04,30,04,24,8.80
2014,04,30,04,25,8.80
2014,04,30,04,26,8.80
2014,04,30,04,27,8.80
2014,04,30,04,28,8.80
2014,04,30,04,29,8.80
2014,04,30,04,30,8.80
2014,04,30,04,31,8.80
2014,04,30,04,32,8.80
2014,04,30,04,33,8.80
2014,04,30,04,34,8.80
2014,04,30,04,35,8.80
2014,04,30,04,36,8.80
2014,04,30,04,37,8.70
2014,04,30,04,38,8.70
2014,04,30,04,39,8.70
2014,04,30,04,40,8.70
2014,04,30,04,41,8.70
2014,04,30,04,42,8.70
2014,04,30,04,43,8.70
2014,04,30,04,44,8.70
2014,04,30,04,45,8.70
2014,04,30,04,46,8.70
2014,04,30,04,47,8.70
2014,04,30,04,48,8.70
2014,04,30,04,49,8.70
2014,04,30,04,50,8.70
2014,04,30,04,51,8.70
2014,04,30,04,52,8.70
2014,04,30,04,53,8.70
2014,04,30,04,54,8.70
2014,04,30,04,55,8.70
2014,04,30,04,56,8.70
2014,04,30,04,57,8.70
2014,04,30,04,58,8.70
2014,04,30,04,59,8.70
2014,04,30,05,00,8.70
2014,04,30,05,01,8.70
2014,04,30,05,02,8.70
2014,04,30,05,03,8.70
2014,04,30,05,04,8.70
2014,04,30,05,05,8.70
2014,04,30,05,06,8.70
2014,04,30,05,07,8.70
2014,04,30,05,08,8.70
2014,04,30,05,09,8.70
2014,04,30,05,10,8.70
2014,04,30,05,11,8.70
2014,04,30,05,12,8.70
2014,04,30,05,13,8.70
2014,04,30,05,14,8.70
2014,04,30,05,15,8.60
2014,04,30,05,16,8.70
2014,04,30,05,17,8.70
2014,04,30,05,18,8.70
2014,04,30,05,19,8.70
2014,04,30,05,20,8.70
2014,04,30,05,21,8.70
2014,04,30,05,22,8.70
2014,04,30,05,23,8.80
2014,04,30,05,24,8.80
2014,04,30,05,25,8.80
2014,04,30,05,26,8.80
2014,04,30,05,27,8.80
2014,04,30,05,28,8.80
2014,04,30,05,29,8.80
2014,04,30,05,30,8.80
2014,04,30,05,31,8.80
2014,04,30,05,32,8.80
2014,04,30,05,33,8.80
2014,04,30,05,34,8.80
2014,04,30,05,35,8.80
2014,04,30,05,36,8.70
2014,04,30,05,37,8.70
2014,04,30,05,38,8.70
2014,04,30,05,39,8.70
2014,04,30,05,40,8.80
2014,04,30,05,41,8.70
2014,04,30,05,42,8.80
2014,04,30,05,43,8.80
2014,04,30,05,44,8.80
2014,04,30,05,45,8.80
2014,04,30,05,46,8.80
2014,04,30,05,47,8.80
2014,04,30,05,48,8.80
2014,04,30,05,49,8.80
2014,04,30,05,50,8.80
2014,04,30,05,51,8.80
2014,04,30,05,52,8.80
2014,04,30,05,53,8.80
2014,04,30,05,54,8.80
2014,04,30,05,55,8.80
2014,04,30,05,56,8.80
2014,04,30,05,57,8.80
2014,04,30,05,58,8.80
2014,04,30,05,59,8.80
2014,04,30,06,00,8.80
2014,04,30,06,01,8.80
2014,04,30,06,02,8.80
2014,04,30,06,03,8.80
2014,04,30,06,04,8.80
2014,04,30,06,05,8.80
2014,04,30,06,06,8.80
2014,04,30,06,07,8.80
2014,04,30,06,08,8.80
2014,04,30,06,09,8.90
2014,04,30,06,10,8.90
2014,04,30,06,11,8.90
2014,04,30,06,12,8.90
2014,04,30,06,13,8.90
2014,04,30,06,14,8.90
2014,04,30,06,15,8.90
2014,04,30,06,16,8.90
2014,04,30,06,17,8.90
2014,04,30,06,18,8.90
2014,04,30,06,19,8.90
2014,04,30,06,20,8.90
2014,04,30,06,21,8.80
2014,04,30,06,22,8.80
2014,04,30,06,23,8.80
2014,04,30,06,24,8.80
2014,04,30,06,25,8.90
2014,04,30,06,26,8.90
2014,04,30,06,27,8.90
2014,04,30,06,28,8.90
2014,04,30,06,29,8.90
2014,04,30,06,30,8.90
2014,04,30,06,31,8.90
2014,04,30,06,32,8.90
2014,04,30,06,33,8.90
2014,04,30,06,34,9.00
2014,04,30,06,35,9.00
2014,04,30,06,36,9.00
2014,04,30,06,37,9.00
2014,04,30,06,38,9.00
2014,04,30,06,39,9.00
2014,04,30,06,40,9.10
2014,04,30,06,41,9.10
2014,04,30,06,42,9.10
2014,04,30,06,43,9.10
2014,04,30,06,44,9.10
2014,04,30,06,45,9.10
2014,04,30,06,46,9.10
2014,04,30,06,47,9.20
2014,04,30,06,48,9.20
2014,04,30,06,49,9.20
2014,04,30,06,50,9.20
2014,04,30,06,51,9.20
2014,04,30,06,52,9.20
2014,04,30,06,53,9.20
2014,04,30,06,54,9.20
2014,04,30,06,55,9.20
2014,04,30,06,56,9.30
2014,04,30,06,57,9.30
2014,04,30,06,58,9.30
2014,04,30,06,59,9.30
2014,04,30,07,00,9.30
2014,04,30,07,01,9.30
2014,04,30,07,02,9.30
2014,04,30,07,03,9.30
2014,04,30,07,04,9.30
2014,04,30,07,05,9.40
2014,04,30,07,06,9.40
2014,04,30,07,07,9.40
2014,04,30,07,08,9.40
2014,04,30,07,09,9.50
2014,04,30,07,10,9.50
2014,04,30,07,11,9.50
2014,04,30,07,12,9.50
2014,04,30,07,13,9.60
2014,04,30,07,14,9.60
2014,04,30,07,15,9.60
2014,04,30,07,16,9.60
2014,04,30,07,17,9.60
2014,04,30,07,18,9.70
2014,04,30,07,19,9.70
2014,04,30,07,20,9.70
2014,04,30,07,21,9.70
2014,04,30,07,22,9.70
2014,04,30,07,23,9.70
2014,04,30,07,24,9.80
2014,04,30,07,25,9.80
2014,04,30,07,26,9.80
2014,04,30,07,27,9.80
2014,04,30,07,28,9.80
2014,04,30,07,29,9.80
2014,04,30,07,30,9.80
2014,04,30,07,31,9.90
2014,04,30,07,32,9.90
2014,04,30,07,33,9.90
2014,04,30,07,34,9.90
2014,04,30,07,35,9.90
2014,04,30,07,36,9.90
2014,04,30,07,37,10.00
2014,04,30,07,38,10.00
2014,04,30,07,39,10.10
2014,04,30,07,40,10.10
2014,04,30,07,41,10.10
2014,04,30,07,42,10.20
2014,04,30,07,43,10.20
2014,04,30,07,44,10.20
2014,04,30,07,45,10.20
2014,04,30,07,46,10.30
2014,04,30,07,47,10.30
2014,04,30,07,48,10.40
2014,04,30,07,49,10.40
2014,04,30,07,50,10.40
2014,04,30,07,51,10.50
2014,04,30,07,52,10.60
2014,04,30,07,53,10.60
2014,04,30,07,54,10.60
2014,04,30,07,55,10.70
2014,04,30,07,56,10.70
2014,04,30,07,57,10.70
2014,04,30,07,58,10.80
2014,04,30,07,59,10.80
2014,04,30,08,00,10.80
2014,04,30,08,01,10.80
2014,04,30,08,02,10.80
2014,04,30,08,03,10.80
2014,04,30,08,04,10.90
2014,04,30,08,05,10.90
2014,04,30,08,06,10.90
2014,04,30,08,07,11.00
2014,04,30,08,08,11.10
2014,04,30,08,09,11.10
2014,04,30,08,10,11.10
2014,04,30,08,11,11.20
2014,04,30,08,12,11.20
2014,04,30,08,13,11.30
2014,04,30,08,14,11.30
2014,04,30,08,15,11.40
2014,04,30,08,16,11.40
2014,04,30,08,17,11.50
2014,04,30,08,18,11.50
2014,04,30,08,19,11.60
2014,04,30,08,20,11.70
2014,04,30,08,21,11.80
2014,04,30,08,22,11.80
2014,04,30,08,23,11.90
2014,04,30,08,24,12.00
2014,04,30,08,25,12.10
2014,04,30,08,26,12.20
2014,04,30,08,27,12.20
2014,04,30,08,28,12.30
2014,04,30,08,29,12.30
2014,04,30,08,30,12.40
2014,04,30,08,31,12.50
2014,04,30,08,32,12.60
2014,04,30,08,33,12.70
2014,04,30,08,34,12.70
2014,04,30,08,35,12.80
2014,04,30,08,36,12.80
2014,04,30,08,37,12.90
2014,04,30,08,38,12.90
2014,04,30,08,39,13.00
2014,04,30,08,40,13.00
2014,04,30,08,41,13.10
2014,04,30,08,42,13.10
2014,04,30,08,43,13.10
2014,04,30,08,44,13.10
2014,04,30,08,45,13.10
2014,04,30,08,46,13.10
2014,04,30,08,47,13.10
2014,04,30,08,48,13.10
2014,04,30,08,49,13.10
2014,04,30,08,50,13.10
2014,04,30,08,51,13.10
2014,04,30,08,52,13.10
2014,04,30,08,53,13.20
2014,04,30,08,54,13.20
2014,04,30,08,55,13.20
2014,04,30,08,56,13.10
2014,04,30,08,57,13.10
2014,04,30,08,58,13.10
2014,04,30,08,59,13.20
2014,04,30,09,00,13.20
2014,04,30,09,01,13.20
2014,04,30,09,02,13.20
2014,04,30,09,03,13.20
2014,04,30,09,04,13.20
2014,04,30,09,05,13.10
2014,04,30,09,06,13.10
2014,04,30,09,07,13.10
2014,04,30,09,08,13.10
2014,04,30,09,09,13.10
2014,04,30,09,10,13.10
2014,04,30,09,11,13.10
2014,04,30,09,12,13.10
2014,04,30,09,13,13.20
2014,04,30,09,14,13.20
2014,04,30,09,15,13.20
2014,04,30,09,16,13.20
2014,04,30,09,17,13.20
2014,04,30,09,18,13.20
2014,04,30,09,19,13.20
2014,04,30,09,20,13.30
2014,04,30,09,21,13.20
2014,04,30,09,22,13.20
2014,04,30,09,23,13.20
2014,04,30,09,24,13.20
2014,04,30,09,25,13.20
2014,04,30,09,26,13.20
2014,04,30,09,27,13.20
2014,04,30,09,28,13.20
2014,04,30,09,29,13.20
2014,04,30,09,30,13.20
2014,04,30,09,31,13.20
2014,04,30,09,32,13.30
2014,04,30,09,33,13.30
2014,04,30,09,34,13.30
2014,04,30,09,35,13.40
2014,04,30,09,36,13.40
2014,04,30,09,37,13.50
2014,04,30,09,38,13.50
2014,04,30,09,39,13.40
2014,04,30,09,40,13.50
2014,04,30,09,41,13.50
2014,04,30,09,42,13.50
2014,04,30,09,43,13.50
2014,04,30,09,44,13.50
2014,04,30,09,45,13.40
2014,04,30,09,46,13.40
2014,04,30,09,47,13.40
2014,04,30,09,48,13.40
2014,04,30,09,49,13.30
2014,04,30,09,50,13.30
2014,04,30,09,51,13.30
2014,04,30,09,52,13.30
2014,04,30,09,53,13.20
2014,04,30,09,54,13.20
2014,04,30,09,55,13.20
2014,04,30,09,56,13.20
2014,04,30,09,57,13.20
2014,04,30,09,58,13.20
2014,04,30,09,59,13.30
2014,04,30,10,00,13.40
2014,04,30,10,01,13.50
2014,04,30,10,02,13.60
2014,04,30,10,03,13.70
2014,04,30,10,04,13.70
2014,04,30,10,05,13.70
2014,04,30,10,06,13.70
2014,04,30,10,07,13.80
2014,04,30,10,08,13.90
2014,04,30,10,09,13.90
2014,04,30,10,10,14.00
2014,04,30,10,11,14.00
2014,04,30,10,12,14.10
2014,04,30,10,13,14.20
2014,04,30,10,14,14.20
2014,04,30,10,15,14.20
2014,04,30,10,16,14.20
2014,04,30,10,17,14.20
2014,04,30,10,18,14.20
2014,04,30,10,19,14.20
2014,04,30,10,20,14.30
2014,04,30,10,21,14.40
2014,04,30,10,22,14.40
2014,04,30,10,23,14.50
2014,04,30,10,24,14.60
2014,04,30,10,25,14.50
2014,04,30,10,26,14.50
2014,04,30,10,27,14.50
2014,04,30,10,28,14.60
2014,04,30,10,29,14.50
2014,04,30,10,30,14.50
2014,04,30,10,31,14.40
2014,04,30,10,32,14.40
2014,04,30,10,33,14.40
2014,04,30,10,34,14.50
2014,04,30,10,35,14.60
2014,04,30,10,36,14.70
2014,04,30,10,37,14.80
2014,04,30,10,38,14.80
2014,04,30,10,39,14.80
2014,04,30,10,40,14.90
2014,04,30,10,41,14.90
2014,04,30,10,42,15.00
2014,04,30,10,43,15.20
2014,04,30,10,44,15.30
2014,04,30,10,45,15.30
2014,04,30,10,46,15.50
2014,04,30,10,47,15.60
2014,04,30,10,48,15.60
2014,04,30,10,49,15.70
2014,04,30,10,50,15.70
2014,04,30,10,51,15.70
2014,04,30,10,52,15.70
2014,04,30,10,53,15.70
2014,04,30,10,54,15.70
2014,04,30,10,55,15.70
2014,04,30,10,56,15.70
2014,04,30,10,57,15.70
2014,04,30,10,58,15.80
2014,04,30,10,59,15.80
2014,04,30,11,00,15.80
2014,04,30,11,01,15.70
2014,04,30,11,02,15.70
2014,04,30,11,03,15.70
2014,04,30,11,04,15.70
2014,04,30,11,05,15.80
2014,04,30,11,06,15.80
2014,04,30,11,07,15.80
2014,04,30,11,08,15.80
2014,04,30,11,09,15.80
2014,04,30,11,10,15.80
2014,04,30,11,11,15.80
2014,04,30,11,12,15.80
2014,04,30,11,13,15.90
2014,04,30,11,14,15.90
2014,04,30,11,15,15.90
2014,04,30,11,16,15.90
2014,04,30,11,17,16.00
2014,04,30,11,18,16.00
2014,04,30,11,19,16.10
2014,04,30,11,20,16.10
2014,04,30,11,21,16.20
2014,04,30,11,22,16.30
2014,04,30,11,23,16.40
2014,04,30,11,24,16.50
2014,04,30,11,25,16.60
2014,04,30,11,26,16.70
2014,04,30,11,27,16.80
2014,04,30,11,28,16.90
2014,04,30,11,29,16.90
2014,04,30,11,30,16.80
2014,04,30,11,31,16.80
2014,04,30,11,32,16.80
2014,04,30,11,33,16.90
2014,04,30,11,34,16.90
2014,04,30,11,35,17.10
2014,04,30,11,36,17.10
2014,04,30,11,37,17.20
2014,04,30,11,38,17.20
2014,04,30,11,39,17.30
2014,04,30,11,40,17.30
2014,04,30,11,41,17.30
2014,04,30,11,42,17.30
2014,04,30,11,43,17.20
2014,04,30,11,44,17.20
2014,04,30,11,45,17.10
2014,04,30,11,46,17.00
2014,04,30,11,47,17.00
2014,04,30,11,48,17.00
2014,04,30,11,49,16.90
2014,04,30,11,50,16.90
2014,04,30,11,51,16.90
2014,04,30,11,52,16.90
2014,04,30,11,53,16.80
2014,04,30,11,54,16.90
2014,04,30,11,55,16.90
2014,04,30,11,56,17.00
2014,04,30,11,57,17.10
2014,04,30,11,58,17.20
2014,04,30,11,59,17.30
2014,04,30,12,00,17.40
2014,04,30,12,01,17.60
2014,04,30,12,02,17.60
2014,04,30,12,03,17.50
2014,04,30,12,04,17.20
2014,04,30,12,05,17.00
2014,04,30,12,06,16.90
2014,04,30,12,07,16.80
2014,04,30,12,08,16.60
2014,04,30,12,09,16.40
2014,04,30,12,10,16.30
2014,04,30,12,11,16.20
2014,04,30,12,12,16.10
2014,04,30,12,13,16.10
2014,04,30,12,14,16.10
2014,04,30,12,15,16.10
2014,04,30,12,16,16.10
2014,04,30,12,17,16.10
2014,04,30,12,18,16.10
2014,04,30,12,19,16.10
2014,04,30,12,20,16.00
2014,04,30,12,21,16.00
2014,04,30,12,22,16.00
2014,04,30,12,23,16.00
2014,04,30,12,24,16.10
2014,04,30,12,25,16.20
2014,04,30,12,26,16.20
2014,04,30,12,27,16.40
2014,04,30,12,28,16.50
2014,04,30,12,29,16.60
2014,04,30,12,30,16.70
2014,04,30,12,31,16.70
2014,04,30,12,32,16.70
2014,04,30,12,33,16.70
2014,04,30,12,34,16.70
2014,04,30,12,35,16.70
2014,04,30,12,36,16.70
2014,04,30,12,37,16.70
2014,04,30,12,38,16.70
2014,04,30,12,39,16.70
2014,04,30,12,40,16.80
2014,04,30,12,41,16.80
2014,04,30,12,42,16.80
2014,04,30,12,43,16.80
2014,04,30,12,44,16.70
2014,04,30,12,45,16.60
2014,04,30,12,46,16.70
2014,04,30,12,47,16.70
2014,04,30,12,48,16.80
2014,04,30,12,49,16.80
2014,04,30,12,50,16.90
2014,04,30,12,51,17.00
2014,04,30,12,52,17.00
2014,04,30,12,53,17.10
2014,04,30,12,54,17.20
2014,04,30,12,55,17.20
2014,04,30,12,56,17.30
2014,04,30,12,57,17.30
2014,04,30,12,58,17.30
2014,04,30,12,59,17.20
2014,04,30,13,00,17.10
2014,04,30,13,01,17.00
2014,04,30,13,02,16.90
2014,04,30,13,03,17.00
2014,04,30,13,04,16.90
2014,04,30,13,05,16.90
2014,04,30,13,06,17.00
2014,04,30,13,07,17.00
2014,04,30,13,08,17.10
2014,04,30,13,09,17.20
2014,04,30,13,10,17.30
2014,04,30,13,11,17.30
2014,04,30,13,12,17.30
2014,04,30,13,13,17.20
2014,04,30,13,14,17.20
2014,04,30,13,15,17.20
2014,04,30,13,16,17.20
2014,04,30,13,17,17.20
2014,04,30,13,18,17.20
2014,04,30,13,19,17.20
2014,04,30,13,20,17.20
2014,04,30,13,21,17.00
2014,04,30,13,22,16.90
2014,04,30,13,23,16.80
2014,04,30,13,24,16.70
2014,04,30,13,25,16.60
2014,04,30,13,26,16.60
2014,04,30,13,27,16.70
2014,04,30,13,28,16.60
2014,04,30,13,29,16.50
2014,04,30,13,30,16.40
2014,04,30,13,31,16.30
2014,04,30,13,32,16.20
2014,04,30,13,33,16.20
2014,04,30,13,34,16.10
2014,04,30,13,35,16.10
2014,04,30,13,36,16.10
2014,04,30,13,37,16.10
2014,04,30,13,38,16.00
2014,04,30,13,39,16.10
2014,04,30,13,40,16.10
2014,04,30,13,41,16.10
2014,04,30,13,42,16.20
2014,04,30,13,43,16.30
2014,04,30,13,44,16.30
2014,04,30,13,45,16.30
2014,04,30,13,46,16.40
2014,04,30,13,47,16.50
2014,04,30,13,48,16.60
2014,04,30,13,49,16.70
2014,04,30,13,50,16.70
2014,04,30,13,51,16.80
2014,04,30,13,52,16.80
2014,04,30,13,53,16.90
2014,04,30,13,54,17.00
2014,04,30,13,55,17.20
2014,04,30,13,56,17.30
2014,04,30,13,57,17.50
2014,04,30,13,58,17.60
2014,04,30,13,59,17.70
2014,04,30,14,00,17.70
2014,04,30,14,01,17.80
2014,04,30,14,02,17.90
2014,04,30,14,03,18.00
2014,04,30,14,04,18.10
2014,04,30,14,05,18.20
2014,04,30,14,06,18.20
2014,04,30,14,07,18.30
2014,04,30,14,08,18.30
2014,04,30,14,09,18.30
2014,04,30,14,10,18.30
2014,04,30,14,11,18.40
2014,04,30,14,12,18.40
2014,04,30,14,13,18.30
2014,04,30,14,14,18.30
2014,04,30,14,15,18.40
2014,04,30,14,16,18.40
2014,04,30,14,17,18.30
2014,04,30,14,18,18.30
2014,04,30,14,19,18.30
2014,04,30,14,20,18.30
2014,04,30,14,21,18.30
2014,04,30,14,22,18.30
2014,04,30,14,23,18.30
2014,04,30,14,24,18.30
2014,04,30,14,25,18.20
2014,04,30,14,26,18.20
2014,04,30,14,27,18.10
2014,04,30,14,28,18.10
2014,04,30,14,29,18.10
2014,04,30,14,30,18.10
2014,04,30,14,31,18.20
2014,04,30,14,32,18.20
2014,04,30,14,33,18.30
2014,04,30,14,34,18.30
2014,04,30,14,35,18.30
2014,04,30,14,36,18.40
2014,04,30,14,37,18.40
2014,04,30,14,38,18.40
2014,04,30,14,39,18.40
2014,04,30,14,40,18.30
2014,04,30,14,41,18.30
2014,04,30,14,42,18.30
2014,04,30,14,43,18.40
2014,04,30,14,44,18.40
2014,04,30,14,45,18.50
2014,04,30,14,46,18.60
2014,04,30,14,47,18.70
2014,04,30,14,48,18.80
2014,04,30,14,49,18.80
2014,04,30,14,50,18.80
2014,04,30,14,51,18.90
2014,04,30,14,52,18.90
2014,04,30,14,53,19.00
2014,04,30,14,54,19.00
2014,04,30,14,55,19.10
2014,04,30,14,56,19.20
2014,04,30,14,57,19.40
2014,04,30,14,58,19.50
2014,04,30,14,59,19.60
2014,04,30,15,00,19.60
2014,04,30,15,01,19.70
2014,04,30,15,02,19.70
2014,04,30,15,03,19.80
2014,04,30,15,04,19.90
2014,04,30,15,05,19.90
2014,04,30,15,06,19.90
2014,04,30,15,07,20.00
2014,04,30,15,08,20.10
2014,04,30,15,09,20.20
2014,04,30,15,10,20.30
2014,04,30,15,11,20.20
2014,04,30,15,12,20.00
2014,04,30,15,13,19.80
2014,04,30,15,14,19.70
2014,04,30,15,15,19.70
2014,04,30,15,16,19.60
2014,04,30,15,17,19.60
2014,04,30,15,18,19.50
2014,04,30,15,19,19.50
2014,04,30,15,20,19.50
2014,04,30,15,21,19.50
2014,04,30,15,22,19.40
2014,04,30,15,23,19.40
2014,04,30,15,24,19.50
2014,04,30,15,25,19.40
2014,04,30,15,26,19.40
2014,04,30,15,27,19.40
2014,04,30,15,28,19.40
2014,04,30,15,29,19.50
2014,04,30,15,30,19.60
2014,04,30,15,31,19.70
2014,04,30,15,32,19.80
2014,04,30,15,33,20.00
2014,04,30,15,34,20.20
2014,04,30,15,35,20.40
2014,04,30,15,36,20.50
2014,04,30,15,37,20.50
2014,04,30,15,38,20.60
2014,04,30,15,39,20.60
2014,04,30,15,40,20.60
2014,04,30,15,41,20.60
2014,04,30,15,42,20.40
2014,04,30,15,43,20.30
2014,04,30,15,44,20.20
2014,04,30,15,45,20.10
2014,04,30,15,46,20.20
2014,04,30,15,47,20.10
2014,04,30,15,48,20.20
2014,04,30,15,49,20.20
2014,04,30,15,50,20.30
2014,04,30,15,51,20.30
2014,04,30,15,52,20.40
2014,04,30,15,53,20.40
2014,04,30,15,54,20.40
2014,04,30,15,55,20.50
2014,04,30,15,56,20.50
2014,04,30,15,57,20.60
2014,04,30,15,58,20.60
2014,04,30,15,59,20.70
2014,04,30,16,00,20.70
2014,04,30,16,01,20.80
2014,04,30,16,02,20.80
2014,04,30,16,03,20.80
2014,04,30,16,04,20.90
2014,04,30,16,05,20.90
2014,04,30,16,06,20.90
2014,04,30,16,07,20.90
2014,04,30,16,08,20.90
2014,04,30,16,09,21.00
2014,04,30,16,10,21.00
2014,04,30,16,11,21.10
2014,04,30,16,12,21.10
2014,04,30,16,13,21.10
2014,04,30,16,14,21.10
2014,04,30,16,15,21.10
2014,04,30,16,16,21.10
2014,04,30,16,17,21.10
2014,04,30,16,18,21.20
2014,04,30,16,19,21.20
2014,04,30,16,20,21.20
2014,04,30,16,21,21.30
2014,04,30,16,22,21.30
2014,04,30,16,23,21.30
2014,04,30,16,24,21.40
2014,04,30,16,25,21.40
2014,04,30,16,26,21.50
2014,04,30,16,27,21.60
2014,04,30,16,28,21.60
2014,04,30,16,29,21.60
2014,04,30,16,30,21.60
2014,04,30,16,31,21.50
2014,04,30,16,32,21.50
2014,04,30,16,33,21.50
2014,04,30,16,34,21.50
2014,04,30,16,35,21.40
2014,04,30,16,36,21.40
2014,04,30,16,37,21.50
2014,04,30,16,38,21.50
2014,04,30,16,39,21.50
2014,04,30,16,40,21.40
2014,04,30,16,41,21.40
2014,04,30,16,42,21.40
2014,04,30,16,43,21.30
2014,04,30,16,44,21.20
2014,04,30,16,45,21.10
2014,04,30,16,46,21.10
2014,04,30,16,47,21.00
2014,04,30,16,48,21.00
2014,04,30,16,49,20.90
2014,04,30,16,50,20.90
2014,04,30,16,51,20.90
2014,04,30,16,52,21.00
2014,04,30,16,53,21.00
2014,04,30,16,54,21.10
2014,04,30,16,55,21.10
2014,04,30,16,56,21.20
2014,04,30,16,57,21.30
2014,04,30,16,58,21.30
2014,04,30,16,59,21.30
2014,04,30,17,00,21.30
2014,04,30,17,01,21.30
2014,04,30,17,02,21.40
2014,04,30,17,03,21.40
2014,04,30,17,04,21.50
2014,04,30,17,05,21.50
2014,04,30,17,06,21.60
2014,04,30,17,07,21.60
2014,04,30,17,08,21.60
2014,04,30,17,09,21.70
2014,04,30,17,10,21.70
2014,04,30,17,11,21.70
2014,04,30,17,12,21.60
2014,04,30,17,13,21.50
2014,04,30,17,14,21.50
2014,04,30,17,15,21.50
2014,04,30,17,16,21.50
2014,04,30,17,17,21.50
2014,04,30,17,18,21.40
2014,04,30,17,19,21.40
2014,04,30,17,20,21.30
2014,04,30,17,21,21.30
2014,04,30,17,22,21.30
2014,04,30,17,23,21.30
2014,04,30,17,24,21.40
2014,04,30,17,25,21.40
2014,04,30,17,26,21.40
2014,04,30,17,27,21.40
2014,04,30,17,28,21.40
2014,04,30,17,29,21.40
2014,04,30,17,30,21.30
2014,04,30,17,31,21.20
2014,04,30,17,32,21.10
2014,04,30,17,33,21.00
2014,04,30,17,34,20.90
2014,04,30,17,35,20.80
2014,04,30,17,36,20.70